Weather History for Christmas Island, IS

Change the Weather History Date:

Sunday, October 20, 2013

  Actual Average Record
Temperature  
Mean Temperature 78 °F -  
Max Temperature 82 °F 77 °F 82 °F (2013)
Min Temperature 75 °F 71 °F 66 °F (2000)
Cooling Degree Days 14    
Growing Degree Days 28 (Base 50)    
Moisture  
Dew Point 72 °F    
Average Humidity 81    
Maximum Humidity 94    
Minimum Humidity 65    
Precipitation  
Precipitation 0.00 in - - ()
Sea Level Pressure  
Sea Level Pressure 29.91 in    
Wind  
Wind Speed 8 mph ()    
Max Wind Speed 13 mph    
Max Gust Speed -    
Visibility 6.2 miles    
Events      
Averages and records for this station are not official NWS values.
T = Trace of Precipitation, MM = Missing Value Source: Averaged Metar Reports

Daily Weather History Graph

Daily Weather History Graph

Search for Another Location

Airport:

Trip Planner

Search our weather history database for the weather conditions in past years. The results will help you decide how hot, cold, wet, or windy it might be!

Date:

Astronomy

Oct. 20, 2013 Rise Set
Actual Time 5:30 AM CXT 5:53 PM CXT
Civil Twilight 5:09 AM CXT 6:14 PM CXT
Nautical Twilight 4:44 AM CXT 6:39 PM CXT
Astronomical Twilight 4:19 AM CXT 7:04 PM CXT
Moon 7:05 PM CXT (10/20) 6:15 AM CXT (10/20)
Length of Visible Light 13h 05m
Length of Day
12h 22m
Full, 98% of the Moon is Illuminated
Oct 20
Full
Oct 27
Last Quarter
Nov 3
New
Nov 10
First Quarter
Nov 17
Full

Hourly Weather History & Observations

Time (CXT) Temp. Heat Index Dew Point Humidity Pressure Visibility Wind Dir Wind Speed Gust Speed Precip Events Conditions
12:00 AM 76 °F - 73 °F 88% 29.90 in - East 5.8 mph - -  
12:00 AM 77.0 °F - 73.4 °F 89% 29.95 in - East 5.8 mph - N/A   Scattered Clouds
12:11 AM 77.0 °F - 73.4 °F 89% 29.92 in - East 8.1 mph - N/A   Mostly Cloudy
1:00 AM 76 °F - 73 °F 88% 29.89 in - ENE 6.9 mph - -  
1:00 AM 77.0 °F - 73.4 °F 89% 29.92 in - ENE 6.9 mph - N/A   Overcast
2:00 AM 77.0 °F - 73.4 °F 89% 29.92 in - East 8.1 mph - N/A   Mostly Cloudy
3:00 AM 76 °F - 73 °F 88% 29.88 in - East 8.1 mph - -   Overcast
3:00 AM 77.0 °F - 73.4 °F 89% 29.92 in - East 8.1 mph - N/A   Mostly Cloudy
3:35 AM 77.0 °F - 73.4 °F 89% 29.92 in - East 8.1 mph - N/A   Mostly Cloudy
4:00 AM 76 °F - 73 °F 86% 29.88 in - ENE 6.9 mph - -  
4:00 AM 77.0 °F - 73.4 °F 89% 29.92 in - ENE 6.9 mph - N/A   Mostly Cloudy
4:28 AM 75.2 °F - 73.4 °F 94% 29.92 in - ENE 8.1 mph - N/A   Scattered Clouds
4:53 AM 75.2 °F - 71.6 °F 89% 29.92 in - ENE 6.9 mph - N/A   Mostly Cloudy
5:00 AM 75.2 °F - 73.4 °F 94% 29.92 in - ENE 6.9 mph - N/A   Mostly Cloudy
6:00 AM 76 °F - 72 °F 85% 29.89 in - NE 8.1 mph - -  
6:00 AM 77.0 °F - 71.6 °F 83% 29.92 in - NE 8.1 mph - N/A   Mostly Cloudy
7:00 AM 77 °F - 72 °F 81% 29.92 in - ENE 10.4 mph - -  
7:00 AM 77.0 °F - 71.6 °F 83% 29.95 in - ENE 10.4 mph - N/A   Mostly Cloudy
8:00 AM 78.8 °F - 71.6 °F 78% 29.98 in 6.2 mi ENE 12.7 mph - N/A   Mostly Cloudy
9:00 AM 79 °F - 72 °F 74% 29.94 in - ENE 11.5 mph - -   Overcast
9:00 AM 78.8 °F - 71.6 °F 78% 29.98 in 6.2 mi ENE 11.5 mph - N/A   Mostly Cloudy
9:19 AM 78.8 °F - 71.6 °F 78% 29.98 in 6.2 mi ENE 11.5 mph - N/A   Mostly Cloudy
10:00 AM 81 °F - 72 °F 66% 29.92 in - ENE 11.5 mph - -  
10:00 AM 80.6 °F 84.6 °F 71.6 °F 74% 29.95 in 6.2 mi ENE 11.5 mph - N/A   Mostly Cloudy
10:32 AM 80.6 °F 84.6 °F 71.6 °F 74% 29.95 in 6.2 mi ENE 12.7 mph - N/A   Mostly Cloudy
11:00 AM 80.6 °F 84.6 °F 71.6 °F 74% 29.95 in 6.2 mi ENE 11.5 mph - N/A   Overcast
11:18 AM 80.6 °F 84.6 °F 71.6 °F 74% 29.95 in 6.2 mi ENE 11.5 mph - N/A   Mostly Cloudy
11:21 AM 80.6 °F 84.6 °F 71.6 °F 74% 29.95 in 6.2 mi ENE 11.5 mph - N/A   Mostly Cloudy
12:00 PM 82 °F - 72 °F 65% 29.89 in - ENE 12.7 mph - -  
12:00 PM 82.4 °F 87.2 °F 71.6 °F 70% 29.92 in 6.2 mi ENE 12.7 mph - N/A   Scattered Clouds
12:17 PM 80.6 °F 84.6 °F 71.6 °F 74% 29.92 in 6.2 mi ENE 10.4 mph - N/A   Mostly Cloudy
1:00 PM 80 °F - 71 °F 69% 29.87 in - ENE 12.7 mph - -  
1:00 PM 80.6 °F 84.6 °F 71.6 °F 74% 29.89 in 6.2 mi ENE 12.7 mph - N/A   Mostly Cloudy
1:17 PM 80.6 °F 84.6 °F 71.6 °F 74% 29.89 in 6.2 mi ENE 10.4 mph - N/A   Mostly Cloudy
2:00 PM 78.8 °F - 71.6 °F 78% 29.89 in 6.2 mi ENE 11.5 mph - N/A   Scattered Clouds
3:00 PM 79 °F - 71 °F 72% 29.83 in - NE 11.5 mph - -   Overcast
3:00 PM 78.8 °F - 71.6 °F 78% 29.86 in 6.2 mi NE 11.5 mph - N/A   Mostly Cloudy
4:00 PM 78 °F - 72 °F 75% 29.82 in - ENE 11.5 mph - -  
4:00 PM 78.8 °F - 71.6 °F 78% 29.86 in 6.2 mi ENE 11.5 mph - N/A   Mostly Cloudy
5:00 PM 78.8 °F - 71.6 °F 78% 29.86 in 6.2 mi ENE 10.4 mph - N/A   Mostly Cloudy
5:06 PM 78.8 °F - 71.6 °F 78% 29.86 in 6.2 mi ENE 9.2 mph - N/A   Mostly Cloudy
5:20 PM 77.0 °F - 71.6 °F 83% 29.86 in 6.2 mi East 9.2 mph - N/A   Mostly Cloudy
6:00 PM 77 °F - 72 °F 79% 29.85 in - ENE 10.4 mph - -  
6:00 PM 77.0 °F - 71.6 °F 83% 29.89 in - ENE 10.4 mph - N/A   Mostly Cloudy
7:00 PM 77 °F - 72 °F 79% 29.87 in - East 9.2 mph - -  
7:00 PM 77.0 °F - 71.6 °F 83% 29.89 in - East 9.2 mph - N/A   Mostly Cloudy
7:03 PM 77.0 °F - 71.6 °F 83% 29.89 in - East 9.2 mph - N/A   Mostly Cloudy
7:07 PM 77.0 °F - 71.6 °F 83% 29.89 in - East 10.4 mph - N/A   Mostly Cloudy
7:18 PM 77.0 °F - 71.6 °F 83% 29.89 in - East 8.1 mph - N/A   Mostly Cloudy
7:54 PM 77.0 °F - 71.6 °F 83% 29.92 in - East 9.2 mph - N/A   Scattered Clouds
8:00 PM 77.0 °F - 71.6 °F 83% 29.92 in - East 9.2 mph - N/A   Mostly Cloudy
8:09 PM 77.0 °F - 71.6 °F 83% 29.92 in - East 9.2 mph - N/A   Mostly Cloudy
8:24 PM 77.0 °F - 71.6 °F 83% 29.92 in - East 9.2 mph - N/A   Mostly Cloudy
9:00 PM 76 °F - 72 °F 84% 29.89 in - East 8.1 mph - -  
9:00 PM 77.0 °F - 71.6 °F 83% 29.92 in - East 8.1 mph - N/A   Mostly Cloudy
10:00 PM 76 °F - 72 °F 84% 29.90 in - ESE 8.1 mph - -  
10:00 PM 77.0 °F - 71.6 °F 83% 29.95 in - ESE 8.1 mph - N/A   Mostly Cloudy
10:15 PM 77.0 °F - 73.4 °F 89% 29.95 in - East 9.2 mph - N/A   Mostly Cloudy
10:29 PM 75.2 °F - 71.6 °F 89% 29.95 in - East 10.4 mph - N/A   Mostly Cloudy
10:55 PM 75.2 °F - 71.6 °F 89% 29.92 in - ESE 8.1 mph - N/A   Mostly Cloudy
11:00 PM 77.0 °F - 71.6 °F 83% 29.92 in - ESE 8.1 mph - N/A   Mostly Cloudy